Location: Ottawa
(45.4167°N, 75.7000°W)
Time: 06:29:16
(UTC-04:00)

Tiangong 1 - Pass Details

Date: 14 October 2017
Orbit: 293 x 320 km, 42.8° (Epoch: 19 October)

Event Time Altitude Azimuth Distance (km) Brightness Sun altitude
Rises 20:04:36 0° 268° (W) 2,039 6.3 -19.3°
Reaches altitude 10° 20:07:10 10° 242° (WSW) 1,200 4.3 -19.8°
Maximum altitude 20:08:43 14° 206° (SSW) 992 3.3 -20.1°
Enters shadow 20:08:44 14° 206° (SSW) 992 3.3 -20.1°
